Wind at 9 knots gusting 22

Air temperature 11.0° C
Dewpoint -11.0° C

Last reported at 2014-Apr-23 13:20 UTC.
Time now 2014-Apr-23 15:16 UTC

Location: N 60°15' E 025°03'.
View on Google Maps.

See reports from other nearby stations

Tides Stations Pressure Air Temp Water Temp Dewpoint Dewpoint depression Visibility Wind Speed Wind Dir Waves Ship positions

  
sailing weather and tide predictions

HELSINKI-MALMI weather

date/time (UTC)wind fromknots sea level pressurealtimeterstation pressurevisibilityair tempwater tempwave heightnotes
2014-Apr-23 14:20 350 12 10.0
2014-Apr-23 13:50 360 11 10.0
2014-Apr-23 13:20 11.0
2014-Apr-23 12:50 010 7 10.0
2014-Apr-23 12:20 340 11 10.0
2014-Apr-23 11:50 350 11 10.0
2014-Apr-23 11:20 340 10 10.0
2014-Apr-23 10:50 010 7 10.0
2014-Apr-23 10:20 360 7 10.0
2014-Apr-23 09:50 360 9 gusting 20 9.0
2014-Apr-23 09:20 350 10 9.0
2014-Apr-23 08:50 010 8 8.0
2014-Apr-23 08:20 8.0
2014-Apr-23 07:50 010 7 7.0
2014-Apr-23 07:20 030 8 8.0
2014-Apr-23 06:50 040 8 7.0
2014-Apr-23 06:20 360 7 6.0
2014-Apr-23 05:50 360 8 5.0
2014-Apr-23 05:20 360 8 4.0
2014-Apr-23 04:50 360 8 4.0
2014-Apr-23 04:20 360 7 3.0
2014-Apr-23 03:50 360 8 3.0
2014-Apr-23 03:20 360 5 3.0
2014-Apr-23 02:50 360 5 3.0
2014-Apr-23 02:20 350 5 2.0
2014-Apr-23 01:50 350 7 3.0
2014-Apr-23 01:20 360 6 4.0
2014-Apr-23 00:50 360 5 4.0
2014-Apr-23 00:20 360 5 5.0
2014-Apr-22 23:50 360 6 6.0
2014-Apr-22 23:20 360 7 6.0
2014-Apr-22 22:50 360 7 7.0
2014-Apr-22 22:20 360 9 8.0
2014-Apr-22 21:50 360 9 8.0
2014-Apr-22 21:20 360 10 9.0
2014-Apr-22 20:50 360 11 10.0
2014-Apr-22 20:20 360 9 11.0
2014-Apr-22 19:50 360 9 12.0
2014-Apr-22 19:20 360 6 12.0
2014-Apr-22 18:50 360 7 13.0
2014-Apr-22 18:20 360 8 14.0
2014-Apr-22 17:50 350 8 14.0
2014-Apr-22 17:20 340 11 16.0
2014-Apr-22 16:50 330 11 16.0
2014-Apr-22 16:20 330 10 17.0
2014-Apr-22 16:04 350 11 18.0
2014-Apr-22 15:50 350 10 18.0
2014-Apr-22 15:20 330 11 18.0
2014-Apr-22 14:50 340 11 18.0
2014-Apr-22 14:20 340 7 19.0
2014-Apr-22 13:50 340 10 19.0
2014-Apr-22 13:20 19.0
2014-Apr-22 12:50 330 9 19.0
2014-Apr-22 12:20 320 11 19.0
2014-Apr-22 11:50 340 5 19.0
2014-Apr-22 11:20 340 7 19.0
2014-Apr-22 10:50 350 7 19.0
2014-Apr-22 10:20 340 7 18.0
2014-Apr-22 09:50 18.0
2014-Apr-22 09:20 340 6 18.0
2014-Apr-22 08:50 330 6 17.0
2014-Apr-22 08:20 16.0
2014-Apr-22 07:50 330 5 15.0
2014-Apr-22 07:20 350 5 14.0
2014-Apr-22 06:50 330 3 13.0
2014-Apr-22 06:20 330 4 12.0
2014-Apr-22 05:50 340 3 11.0
2014-Apr-22 05:20 340 4 9.0
2014-Apr-22 04:50 330 2 7.0
2014-Apr-21 17:50 110 2 11.0
2014-Apr-21 17:20 150 3 12.0
2014-Apr-21 16:50 140 5 13.0
2014-Apr-21 16:20 150 5 13.0
2014-Apr-21 15:50 140 6 14.0
2014-Apr-21 15:20 140 6 14.0